User: anonymous   Login
Location: Boca do Mato
(22.9085°S, 43.2930°W)
Time: 00:45:00
(UTC+00:00)
Language:

YAOGAN 6 - Orbit

View from above orbital plane
View from above orbital plane
View from above satellite
View from above satellite

Ground track
Ground track

The orbit data is extracted from the following two-line orbital elements,

1 34839U 09021A   20271.75646076  .00000860  00000-0  34669-4 0  9998
2 34839  97.0404 274.3449 0028372  20.2018 340.0337 15.27024581635415
Epoch (UTC): 27 September 2020 18:09:18
Eccentricity: 0.0028372
inclination: 97.0404°
perigee height: 465 km
apogee height: 504 km
right ascension of ascending node: 274.3449°
argument of perigee: 20.2018°
revolutions per day: 15.27024581
mean anomaly at epoch: 340.0337°
orbit number at epoch: 63541

The dashed part of the orbit path shows where the satellite is in the earth's shadow,  

DLR